DW9615 Home Hill AU current weather conditions

sailwx.info

Wind from 134 at 0 knots gusting 6

Air temperature 32.2° C
Dewpoint 24.8° C

Last reported at 2017-Mar-25 04:47 UTC.
Time now 2017-Mar-25 06:01 UTC

Location: S 19°40' E 147°25'.
View on Google Maps.

See reports from other nearby stations

  
Tides and Currents Weather Stations Pressure Air Temp Water Temp Dewpoint Dewpoint Depression Visibility Wind Speed Wind Dir Waves Ship Positions
date/time (UTC)wind fromknots sea level pressurealtimeterstation pressurevisibilityair tempwater tempwave heightnotes
2017-Mar-25 04:47 134 0 gusting 6 32.2
2017-Mar-25 04:32 165 4 gusting 10 32.2
2017-Mar-25 04:17 143 4 gusting 8 32.8
2017-Mar-25 04:01 152 2 gusting 8 32.2
2017-Mar-25 03:47 157 4 gusting 7 32.8
2017-Mar-25 03:32 136 4 gusting 10 32.2
2017-Mar-25 03:16 142 3 gusting 9 31.1
2017-Mar-25 03:01 137 4 gusting 10 32.2
2017-Mar-25 02:46 151 4 gusting 9 31.1
2017-Mar-25 02:31 150 6 gusting 11 32.2
2017-Mar-25 02:16 122 4 gusting 10 31.1
2017-Mar-25 02:01 181 4 gusting 12 31.1
2017-Mar-25 01:46 151 5 gusting 9 30.6
2017-Mar-25 01:31 170 6 gusting 10 31.1
2017-Mar-25 01:16 150 3 gusting 9 31.1
2017-Mar-25 01:01 143 3 gusting 9 29.4
2017-Mar-25 00:46 139 3 gusting 9 29.4
2017-Mar-25 00:31 142 3 gusting 11 30.0
2017-Mar-25 00:16 141 3 gusting 9 29.4
2017-Mar-25 00:01 138 2 gusting 9 29.4
2017-Mar-24 23:46 123 2 gusting 7 28.9
2017-Mar-24 23:31 138 2 gusting 8 28.3
2017-Mar-24 23:16 170 1 gusting 7 27.8
2017-Mar-24 23:01 143 3 gusting 10 27.8
2017-Mar-24 22:46 170 3 gusting 12 27.2
2017-Mar-24 22:31 161 3 gusting 9 27.2
2017-Mar-24 22:16 198 3 gusting 7 27.2
2017-Mar-24 22:01 151 0 gusting 4 26.7
2017-Mar-24 21:45 213 0 gusting 3 25.6
2017-Mar-24 21:30 246 24.4
2017-Mar-24 21:15 225 23.3
2017-Mar-24 21:00 210 22.8
2017-Mar-24 20:46 129 22.8
2017-Mar-24 20:30 130 22.8
2017-Mar-24 20:16 131 22.8
2017-Mar-24 20:00 130 22.8
2017-Mar-24 19:45 125 22.8
2017-Mar-24 19:30 170 22.8
2017-Mar-24 19:15 175 22.8
2017-Mar-24 19:00 175 22.8
2017-Mar-24 18:45 175 22.8
2017-Mar-24 18:30 175 22.8
2017-Mar-24 18:15 175 22.8
2017-Mar-24 18:00 193 22.8
2017-Mar-24 17:45 193 22.8
2017-Mar-24 17:33 192 22.8
2017-Mar-24 17:15 192 23.3
2017-Mar-24 17:00 192 23.3
2017-Mar-24 16:45 192 23.3
2017-Mar-24 16:30 216 23.3
2017-Mar-24 16:15 218 23.3
2017-Mar-24 16:00 160 23.3
2017-Mar-24 15:45 160 23.9
2017-Mar-24 15:30 160 23.9
2017-Mar-24 15:15 160 23.9
2017-Mar-24 15:00 160 23.9
2017-Mar-24 14:45 160 23.9
2017-Mar-24 14:30 160 0 gusting 3 23.9
2017-Mar-24 14:15 156 23.9
2017-Mar-24 14:00 155 24.4
2017-Mar-24 13:45 155 0 gusting 2 25.0
2017-Mar-24 13:30 150 25.0
2017-Mar-24 13:15 152 2 gusting 5 25.0
2017-Mar-24 13:00 138 1 gusting 6 25.0
2017-Mar-24 12:45 148 25.0
2017-Mar-24 12:30 125 25.0
2017-Mar-24 12:15 129 25.0
2017-Mar-24 12:00 129 25.0
2017-Mar-24 11:45 129 25.6
2017-Mar-24 11:30 138 25.6
2017-Mar-24 11:15 120 25.6
2017-Mar-24 11:00 109 25.6
2017-Mar-24 10:45 135 25.6
2017-Mar-24 10:30 131 2 gusting 4 25.6
2017-Mar-24 10:15 114 25.6
2017-Mar-24 10:00 111 26.1
2017-Mar-24 09:45 121 26.1
2017-Mar-24 09:30 127 26.1
2017-Mar-24 09:14 131 26.7
2017-Mar-24 08:59 118 0 gusting 2 26.7
2017-Mar-24 08:44 132 0 gusting 6 27.2
2017-Mar-24 08:30 128 27.8
2017-Mar-24 08:15 088 0 gusting 3 28.3
2017-Mar-24 07:59 110 1 gusting 4 28.9
2017-Mar-24 07:45 091 1 gusting 8 28.9
2017-Mar-24 07:29 083 2 gusting 6 28.9
2017-Mar-24 07:14 075 2 gusting 6 28.9
2017-Mar-24 06:59 136 1 gusting 7 29.4
2017-Mar-24 06:44 084 5 gusting 10 29.4
2017-Mar-24 06:29 075 4 gusting 10 30.0
2017-Mar-24 06:14 142 2 gusting 12 30.6
2017-Mar-24 05:59 122 4 gusting 8 30.6
2017-Mar-24 05:44 087 2 gusting 7 29.4
2017-Mar-24 05:29 165 3 gusting 10 30.0
2017-Mar-24 05:14 091 5 gusting 11 30.6
2017-Mar-24 04:59 137 3 gusting 9 30.0
2017-Mar-24 04:44 150 7 gusting 12 31.1
2017-Mar-24 04:29 080 5 gusting 13 31.1
2017-Mar-24 04:14 094 3 gusting 8 30.6
2017-Mar-24 03:59 107 4 gusting 10 30.6
2017-Mar-24 03:44 108 3 gusting 8 30.6
2017-Mar-24 03:29 120 3 gusting 9 30.6
2017-Mar-24 03:14 089 3 gusting 10 30.6
2017-Mar-24 02:59 141 5 gusting 9 31.1
2017-Mar-24 02:44 108 3 gusting 10 31.1
2017-Mar-24 02:29 091 4 gusting 10 31.7
2017-Mar-24 02:14 081 3 gusting 9 31.1
2017-Mar-24 01:59 156 4 gusting 8 31.1
2017-Mar-24 01:44 152 3 gusting 8 30.6
2017-Mar-24 01:29 151 3 gusting 10 30.0
2017-Mar-24 01:14 110 5 gusting 11 30.0
2017-Mar-24 00:59 081 6 gusting 12 29.4
2017-Mar-24 00:44 146 4 gusting 9 29.4
2017-Mar-24 00:29 139 5 gusting 10 28.9
2017-Mar-24 00:14 131 2 gusting 8 28.9
2017-Mar-23 23:59 138 3 gusting 6 27.8
2017-Mar-23 23:44 137 2 gusting 6 27.2
2017-Mar-23 23:28 127 4 gusting 8 27.2
2017-Mar-23 23:13 156 3 gusting 7 26.1
2017-Mar-23 22:58 130 3 gusting 8 26.1
2017-Mar-23 22:43 131 1 gusting 5 25.0
2017-Mar-23 22:29 122 2 gusting 6 25.0
2017-Mar-23 22:13 141 3 gusting 7 25.0
2017-Mar-23 21:58 129 3 gusting 7 24.4
2017-Mar-23 21:43 134 3 gusting 8 24.4
2017-Mar-23 21:28 139 23.9
2017-Mar-23 21:13 141 23.3
2017-Mar-23 20:59 138 23.3
2017-Mar-23 20:43 129 23.3
2017-Mar-23 20:28 129 23.3
2017-Mar-23 20:13 129 23.3
2017-Mar-23 19:58 129 23.3
2017-Mar-23 19:43 129 23.3
2017-Mar-23 19:28 129 23.3
2017-Mar-23 19:13 129 23.3
2017-Mar-23 18:58 129 23.3
2017-Mar-23 18:43 129 23.3
2017-Mar-23 18:28 129 23.3
2017-Mar-23 18:13 129 23.3
2017-Mar-23 17:58 129 23.3
2017-Mar-23 17:43 129 23.3
2017-Mar-23 17:28 129 23.9
2017-Mar-23 17:13 129 23.9
2017-Mar-23 16:58 126 23.9
2017-Mar-23 16:43 125 23.9
2017-Mar-23 16:28 125 23.9
2017-Mar-23 16:13 125 23.9
2017-Mar-23 15:58 125 0 gusting 4 23.9
2017-Mar-23 15:43 099 23.9
2017-Mar-23 15:28 089 23.9
2017-Mar-23 15:13 089 23.3
2017-Mar-23 14:58 087 23.3
2017-Mar-23 14:43 085 23.3
2017-Mar-23 14:28 085 23.3
2017-Mar-23 14:12 057 23.3
2017-Mar-23 13:57 057 23.3
2017-Mar-23 13:42 058 23.3
2017-Mar-23 13:27 337 23.3
2017-Mar-23 13:13 337 23.3
2017-Mar-23 12:57 337 23.3
2017-Mar-23 12:42 337 23.3
2017-Mar-23 12:27 338 23.3
2017-Mar-23 12:12 338 23.3
2017-Mar-23 11:57 337 1 gusting 4 23.3
2017-Mar-23 11:42 329 1 gusting 4 23.9
2017-Mar-23 11:27 116 23.3
2017-Mar-23 11:12 116 23.3
2017-Mar-23 10:57 116 0 gusting 3 23.3
2017-Mar-23 10:42 104 23.3
2017-Mar-23 10:27 108 23.3
2017-Mar-23 10:12 121 1 gusting 6 23.3
2017-Mar-23 09:57 055 5 gusting 9 23.9
2017-Mar-23 09:42 135 2 gusting 11 24.4
2017-Mar-23 09:27 077 3 gusting 7 24.4
2017-Mar-23 09:12 106 1 gusting 4 25.0
2017-Mar-23 08:57 126 0 gusting 5 25.0
2017-Mar-23 08:42 102 2 gusting 6 25.6
2017-Mar-23 08:27 071 3 gusting 9 25.6
2017-Mar-23 08:12 126 4 gusting 12 26.1
2017-Mar-23 07:57 126 1 gusting 5 27.8
2017-Mar-23 07:42 084 2 gusting 7 27.8
2017-Mar-23 07:27 059 5 gusting 10 28.3
2017-Mar-23 07:12 079 3 gusting 6 28.9
2017-Mar-23 06:57 067 3 gusting 9 28.9
2017-Mar-23 06:42 062 5 gusting 8 28.3
2017-Mar-23 06:27 050 4 gusting 9 29.4
2017-Mar-23 06:12 052 3 gusting 9 28.3